TimeCET,TemperatureF,Dew PointF,Humidity,Sea Level PressureIn,VisibilityMPH,Wind Direction,Wind SpeedMPH,Gust SpeedMPH,PrecipitationIn,Events,Conditions,WindDirDegrees,DateUTC
6:00 AM,35.6,33.8,93,29.65,6.2,West,17.3,-,N/A,,Partly Cloudy,280,2013-01-21 05:00:00
6:30 AM,35.6,33.8,93,29.68,6.2,West,15.0,-,N/A,,Partly Cloudy,280,2013-01-21 05:30:00
7:30 AM,33.8,32.0,93,29.71,6.2,West,13.8,-,N/A,,Partly Cloudy,280,2013-01-21 06:30:00
8:00 AM,33.8,32.0,93,29.71,6.2,West,11.5,-,N/A,,Partly Cloudy,280,2013-01-21 07:00:00
8:30 AM,33.8,32.0,93,29.74,6.2,West,16.1,-,N/A,,Partly Cloudy,280,2013-01-21 07:30:00
9:00 AM,33.8,32.0,93,29.74,6.2,West,13.8,-,N/A,,Partly Cloudy,270,2013-01-21 08:00:00
9:30 AM,33.8,30.2,87,29.77,6.2,West,16.1,-,N/A,,Partly Cloudy,280,2013-01-21 08:30:00
10:00 AM,33.8,32.0,93,29.77,6.2,West,16.1,-,N/A,,Partly Cloudy,280,2013-01-21 09:00:00
10:30 AM,35.6,32.0,87,29.80,6.2,West,13.8,-,N/A,,Partly Cloudy,280,2013-01-21 09:30:00
11:00 AM,35.6,32.0,87,29.83,6.2,West,12.7,-,N/A,,Partly Cloudy,280,2013-01-21 10:00:00
11:30 AM,37.4,33.8,87,29.83,6.2,West,12.7,-,N/A,,Partly Cloudy,280,2013-01-21 10:30:00
12:00 PM,39.2,33.8,81,29.83,6.2,West,13.8,-,N/A,,Partly Cloudy,270,2013-01-21 11:00:00
1:00 PM,39.2,32.0,75,29.83,6.2,West,15.0,-,N/A,,Scattered Clouds,270,2013-01-21 12:00:00
1:30 PM,41.0,30.2,65,29.83,6.2,West,13.8,-,N/A,,Scattered Clouds,270,2013-01-21 12:30:00
2:00 PM,41.0,30.2,65,29.83,6.2,West,13.8,-,N/A,,Scattered Clouds,270,2013-01-21 13:00:00
2:30 PM,41.0,30.2,65,29.83,6.2,West,16.1,-,N/A,,Scattered Clouds,260,2013-01-21 13:30:00
3:00 PM,41.0,30.2,65,29.83,6.2,West,15.0,-,N/A,,Mostly Cloudy,260,2013-01-21 14:00:00
3:30 PM,41.0,30.2,65,29.83,6.2,West,17.3,-,N/A,,Mostly Cloudy,270,2013-01-21 14:30:00
4:00 PM,42.8,30.2,61,29.83,6.2,West,16.1,-,N/A,,Mostly Cloudy,260,2013-01-21 15:00:00
4:30 PM,41.0,28.4,61,29.83,6.2,West,17.3,-,N/A,,Mostly Cloudy,260,2013-01-21 15:30:00
5:00 PM,41.0,28.4,61,29.83,6.2,West,19.6,-,N/A,,Mostly Cloudy,260,2013-01-21 16:00:00
5:30 PM,41.0,28.4,61,29.86,6.2,West,17.3,-,N/A,,Mostly Cloudy,260,2013-01-21 16:30:00
6:00 PM,39.2,26.6,61,29.86,6.2,West,15.0,-,N/A,,Mostly Cloudy,270,2013-01-21 17:00:00
6:30 PM,37.4,28.4,70,29.83,6.2,West,13.8,-,N/A,,Scattered Clouds,270,2013-01-21 17:30:00
7:00 PM,35.6,28.4,75,29.86,6.2,West,11.5,-,N/A,,Partly Cloudy,270,2013-01-21 18:00:00
7:30 PM,33.8,28.4,81,29.86,6.2,WSW,9.2,-,N/A,,Partly Cloudy,250,2013-01-21 18:30:00
8:00 PM,32.0,28.4,87,29.86,6.2,SW,8.1,-,N/A,,Partly Cloudy,230,2013-01-21 19:00:00
8:30 PM,32.0,28.4,87,29.86,6.2,WSW,9.2,-,N/A,,Partly Cloudy,250,2013-01-21 19:30:00
9:00 PM,32.0,28.4,87,29.86,6.2,WSW,10.4,-,N/A,,Partly Cloudy,250,2013-01-21 20:00:00
9:30 PM,32.0,28.4,87,29.86,6.2,SW,8.1,-,N/A,,Partly Cloudy,230,2013-01-21 20:30:00
10:00 PM,32.0,30.2,93,29.86,6.2,SW,9.2,-,N/A,,Partly Cloudy,220,2013-01-21 21:00:00
10:30 PM,32.0,32.0,100,29.86,6.2,SW,9.2,-,N/A,,Partly Cloudy,230,2013-01-21 21:30:00